Back to catalog

SL-14 DEB

AlivePO
NORAD 45285·DEBRIS·🇷🇺 Russia

Launched Aug 15, 1991 from Plesetsk Cosmodrome

Loading…

Next Passes (next 24 hours)

TLE

FreshSource: Space-Track

Epoch: Sep 14, 2026, 01:58 UTC

1 45285U 91056X   26257.08212937  .00000096  00000-0  27048-3 0  9998
2 45285  82.5660 129.7302 0109264 211.5057 147.9483 13.00696529312261

Track SL-14 DEB in real time with AllMySat

Download on the App Store